Change the Weather History Date:

Wednesday, April 10, 2013

  Actual Average Record
Temperature  
Mean Temperature 22 °F 47 °F  
Max Temperature 30 °F 62 °F 90 °F (1907)
Min Temperature 13 °F 33 °F 4 °F (1989)
Degree Days  
Heating Degree Days 43 18  
Month to date heating degree days 217 190  
Since 1 July heating degree days 5347 5365  
Cooling Degree Days 0 0  
Month to date cooling degree days 0 0  
Year to date cooling degree days 0 0  
Moisture  
Dew Point 13 °F    
Average Humidity 70    
Maximum Humidity 84    
Minimum Humidity 55    
Precipitation  
Precipitation T in 0.05 in 1.24 in (1944)
Month to date precipitation 0.04 0.44  
Year to date precipitation 2.34 2.38  
Snow  
Snow 0.10 in 0.10 in - ()
Month to date snowfall 0.8 2.0  
Since 1 July snowfall 43.8 32.8  
Snow Depth 1.00 in    
Sea Level Pressure  
Sea Level Pressure 30.10 in    
Wind  
Wind Speed 23 mph (NNW)    
Max Wind Speed 36 mph    
Max Gust Speed 40 mph    
Visibility 9 miles    
Events Snow    
T = Trace of Precipitation, MM = Missing Value Source: NWS Daily Summary

Daily Weather History Graph

Daily Weather History Graph

Search for Another Location

Airport or City:

Trip Planner

Search our weather history database for the weather conditions in past years. The results will help you decide how hot, cold, wet, or windy it might be!

Date:

Astronomy

Apr. 10, 2013 Rise Set
Actual Time 6:16 AM MDT 7:19 PM MDT
Civil Twilight 5:49 AM MDT 7:47 PM MDT
Nautical Twilight 5:16 AM MDT 8:20 PM MDT
Astronomical Twilight 4:42 AM MDT 8:54 PM MDT
Moon 6:14 AM MDT (4/10) 7:57 PM MDT (4/10)
Length of Visible Light 13h 58m
Length of Day
13h 03m
New Moon, 0% of the Moon is Illuminated
Apr 10
New Moon
Apr 18
First Quarter
Apr 25
Full
May 2
Last Quarter
May 9
New

Hourly Weather History & Observations

Time (MDT) Temp. Windchill Dew Point Humidity Pressure Visibility Wind Dir Wind Speed Gust Speed Precip Events Conditions
12:53 AM 15.1 °F -4.0 °F 10.0 °F 80% 30.21 in 9.0 mi NNW 25.3 mph 34.5 mph 0.00 in Snow Light Snow
1:53 AM 15.1 °F -3.7 °F 10.9 °F 84% 30.21 in 5.0 mi NNW 24.2 mph 31.1 mph 0.00 in Snow Light Snow
2:53 AM 15.1 °F -3.7 °F 10.0 °F 80% 30.21 in 8.0 mi NNW 24.2 mph 31.1 mph 0.00 in Snow Light Snow
3:33 AM 14.0 °F -4.7 °F 8.6 °F 79% 30.04 in 9.0 mi NNW 23.0 mph 28.8 mph 0.00 in Snow Light Snow
3:53 AM 12.9 °F -6.5 °F 9.0 °F 84% 30.21 in 10.0 mi NNW 24.2 mph - 0.00 in   Overcast
4:53 AM 12.9 °F -5.3 °F 9.0 °F 84% 30.22 in 7.0 mi NNW 20.7 mph 28.8 mph 0.00 in Snow Light Snow
5:53 AM 14.0 °F -4.7 °F 9.0 °F 80% 30.21 in 10.0 mi NNW 23.0 mph - 0.00 in   Overcast
6:53 AM 12.9 °F -6.5 °F 8.1 °F 81% 30.22 in 10.0 mi NW 24.2 mph - N/A   Scattered Clouds
7:53 AM 16.0 °F -4.1 °F 10.9 °F 81% 30.19 in 10.0 mi NNW 29.9 mph 38.0 mph N/A   Clear
8:20 AM 17.6 °F -2.2 °F 10.4 °F 73% 30.07 in 10.0 mi NNW 31.1 mph 35.7 mph 0.00 in   Mostly Cloudy
8:36 AM 17.6 °F -2.2 °F 12.2 °F 79% 30.06 in 10.0 mi NNW 31.1 mph 38.0 mph 0.00 in   Overcast
8:53 AM 19.0 °F 0.6 °F 12.0 °F 74% 30.21 in 10.0 mi NNW 27.6 mph - 0.00 in   Overcast
9:53 AM 21.0 °F 3.6 °F 12.9 °F 71% 30.20 in 10.0 mi NNW 26.5 mph - N/A   Overcast
10:53 AM 23.0 °F 5.7 °F 14.0 °F 68% 30.19 in 10.0 mi NNW 28.8 mph 35.7 mph N/A   Overcast
11:53 AM 26.1 °F 9.3 °F 15.1 °F 63% 30.14 in 9.0 mi NNW 31.1 mph 40.3 mph 0.00 in Snow Light Snow
12:53 PM 24.1 °F 6.6 °F 14.0 °F 65% 30.14 in 9.0 mi NNW 31.1 mph 38.0 mph 0.00 in Snow Light Snow
1:34 PM 24.8 °F 7.6 °F 15.8 °F 69% 30.00 in 8.0 mi NNW 31.1 mph 35.7 mph 0.00 in Snow Light Snow
1:53 PM 26.1 °F 9.8 °F 12.9 °F 58% 30.14 in 9.0 mi North 28.8 mph 38.0 mph 0.00 in Snow Light Snow
2:08 PM 26.6 °F 10.0 °F 12.2 °F 55% 30.00 in 9.0 mi North 31.1 mph 36.8 mph 0.00 in Snow Light Snow
2:34 PM 26.6 °F 10.6 °F 14.0 °F 59% 30.00 in 9.0 mi NNW 28.8 mph 40.3 mph 0.00 in Snow Light Snow
2:53 PM 28.0 °F 13.0 °F 14.0 °F 56% 30.11 in 9.0 mi NNW 26.5 mph 36.8 mph 0.00 in   Overcast
3:02 PM 26.6 °F 10.8 °F 15.8 °F 64% 29.99 in 9.0 mi NNW 27.6 mph 34.5 mph 0.00 in Snow Light Snow
3:22 PM 28.4 °F 13.3 °F 15.8 °F 59% 29.98 in 9.0 mi NNW 27.6 mph 33.4 mph 0.00 in Snow Light Snow
3:53 PM 27.0 °F 12.2 °F 15.1 °F 61% 30.09 in 9.0 mi NNW 24.2 mph 32.2 mph 0.00 in Snow Light Snow
4:20 PM 26.6 °F 11.7 °F 15.8 °F 64% 29.96 in 10.0 mi NNW 24.2 mph 32.2 mph 0.00 in   Overcast
4:53 PM 26.1 °F 10.4 °F 14.0 °F 60% 30.07 in 10.0 mi NNW 26.5 mph - 0.00 in   Overcast
5:53 PM 25.0 °F 9.5 °F 15.1 °F 66% 30.07 in 10.0 mi NNW 24.2 mph 29.9 mph 0.00 in   Overcast
6:43 PM 24.8 °F 10.7 °F 15.8 °F 69% 29.95 in 9.0 mi NNW 19.6 mph 27.6 mph 0.00 in Snow Light Snow
6:53 PM 24.1 °F 9.8 °F 17.1 °F 75% 30.08 in 9.0 mi NNW 19.6 mph 27.6 mph 0.00 in Snow Light Snow
7:06 PM 24.8 °F 10.0 °F 15.8 °F 69% 29.95 in 9.0 mi NNW 21.9 mph - 0.00 in Snow Light Snow
7:53 PM 24.1 °F 10.1 °F 17.1 °F 75% 30.08 in 9.0 mi NNW 18.4 mph - 0.00 in Snow Light Snow
8:37 PM 23.0 °F 10.1 °F 15.8 °F 74% 29.96 in 10.0 mi NNW 15.0 mph - 0.00 in   Scattered Clouds
8:53 PM 21.9 °F 9.8 °F 16.0 °F 78% 30.08 in 10.0 mi NNW 12.7 mph - 0.00 in   Unknown
9:53 PM 21.9 °F 9.8 °F 15.1 °F 75% 30.08 in 10.0 mi NW 12.7 mph - N/A   Clear
10:53 PM 21.9 °F 11.7 °F 15.1 °F 75% 30.07 in 10.0 mi WNW 9.2 mph - N/A   Mostly Cloudy
11:53 PM 19.9 °F 6.7 °F 15.1 °F 81% 30.05 in 10.0 mi WNW 13.8 mph - N/A   Overcast